ARIANE 2 DEB, 28570

Orbit data source: Space-Track

ARIANE 2 DEB, 28570 is space debris in HEO originally from a launch on Fri, 27 Jan 1989 UTC launched from the French Guiana (FRGUI). Debris objects in space refer to the collection of defunct objects orbiting the Earth. Examples of debris include non-operational satellites, rocket bodies, and fragments generated from explosions, collisions, or faulty payload assembly.

Loading next visibility...
Identifier
28570, 1989-006AM
Orbit
HEO
Country
Flag of FRFR
Related business
Manufacturer
EADS/LV
Mission
Spacecraft
Bus & Motor
Unknown
Mass
Unknown
Launch date (UTC)
1989-01-27 (37 years ago)
Launch vehicle
Unknown
Launch site
French Guiana (FRGUI)
Object type
Payload
Rocket body
Debris
Shape & HBR
Unknown shape, 1.1 m
Radar Cross Section
Medium (>0.1 m² and <1 m²)

Expand to show TLE details & history
Last TLE update: 6 months ago

TLE from 6 months ago
0 ARIANE 2 DEB
1 28570U 89006AM  25275.48303373  .00000467  00000-0  16410-1 0  9997
2 28570   7.1152 245.1245 7087793 122.5218   9.6263  2.29684754183404
Epoch: 2025-10-02T11:35Z
TLE epoch observation values (Epoch: 2025-10-02T11:35:34.114Z)
Latitude
-1.09125°
Longitude
-111.80815°
Altitude
2,962.941 km
Speed
8.301 km/s
True Right ascension
04h 54m 06s
True Declination
-1° 05' 11"
Sunlit
Object was in daylight at epoch
Visualization orbit readout
Latitude
Unknown
Longitude
Unknown
Altitude
Unknown
Speed
Unknown
Apparent Right ascension
Unknown
Apparent Declination
Unknown
Sunlit
N/A
Visualization observer readout
Local Sidereal Time
02:51:44
Azimuth
Unknown
Elevation
Unknown
Doppler factor
Unknown
Orbital elements
Apogee altitude
35,094.061 km
Perigee altitude
689.811 km
Semi-major axis
24,270.073 km
Eccentricity
0.70878
Inclination
7.1152°
RAAN
245.1245°
Arg. of periapsis
122.5218°
True anomaly
65.64617°
Mean anomaly
9.6263°
Eccentric anomaly
29.82193°
Mean motion
0.57403 °/min
Orbital period
627.14 mins
BSTAR
0.01641
Loading maneuver chart data...
Computing Atmospheric mass density...
Loading historical data...
Loading historical data...
Loading historical data...
Loading historical data...
Loading historical data...
Loading historical data...
Loading historical data...

Documentation

Showing up to 5 results
|